Stanton, MN

5:39 PM CDT on October 22, 2017 (GMT -0500)
Stanton

Weather History for KSYN - March, 2013

Change the Weather History Date:

Sunday, March 31, 2013

  Actual Average (KLVN) Record (KLVN)
Temperature  
Mean Temperature 33 °F -  
Max Temperature 39 °F 50 °F 79 °F (1986)
Min Temperature 26 °F 28 °F -3 °F (1969)
Degree Days  
Heating Degree Days 32    
Moisture  
Dew Point 26 °F    
Average Humidity 72    
Maximum Humidity 94    
Minimum Humidity 44    
Precipitation  
Precipitation 0.00 in - - ()
Sea Level Pressure  
Sea Level Pressure 29.87 in    
Wind  
Wind Speed 12 mph (WNW)    
Max Wind Speed 25 mph    
Max Gust Speed 31 mph    
Visibility 7 miles    
Events      
Averages and records for this station are not official NWS values.
T = Trace of Precipitation, MM = Missing Value Source: NWS Daily Summary

Daily Weather History Graph

Daily Weather History Graph

Search for Another Location

Airport or City:

Trip Planner

Search our weather history database for the weather conditions in past years. The results will help you decide how hot, cold, wet, or windy it might be!

Date:

Astronomy

Mar. 31, 2013 Rise Set
Actual Time 6:54 AM CDT 7:38 PM CDT
Civil Twilight 6:25 AM CDT 8:08 PM CDT
Nautical Twilight 5:50 AM CDT 8:42 PM CDT
Astronomical Twilight 5:14 AM CDT 9:19 PM CDT
Moon No Moon Rise 9:32 AM CDT (3/31)
Length of Visible Light 13h 42m
Length of Day
12h 44m
Waning Gibbous, 77% of the Moon is Illuminated
Mar 31
Waning Gibbous
Apr 2
Last Quarter
Apr 10
New
Apr 18
First Quarter
Apr 25
Full

Hourly Weather History & Observations

Time (CDT) Temp. Windchill Dew Point Humidity Pressure Visibility Wind Dir Wind Speed Gust Speed Precip Events Conditions
12:13 AM 34.7 °F 28.8 °F 32.0 °F 90% 29.84 in 4.0 mi SW 6.9 mph - N/A   Clear
12:32 AM 34.5 °F 29.4 °F 32.0 °F 90% 29.84 in 4.0 mi WSW 5.8 mph - N/A   Clear
12:53 AM 34.5 °F 28.6 °F 32.0 °F 90% 29.84 in 4.0 mi WSW 6.9 mph - N/A   Clear
1:13 AM 34.2 °F 28.2 °F 32.0 °F 92% 29.85 in 4.0 mi WSW 6.9 mph - N/A   Clear
1:32 AM 34.3 °F 29.2 °F 31.6 °F 90% 29.85 in 5.0 mi WSW 5.8 mph - N/A   Clear
1:53 AM 34.2 °F 27.5 °F 31.5 °F 90% 29.85 in 5.0 mi WSW 8.1 mph - N/A   Clear
2:13 AM 34.0 °F 28.0 °F 31.1 °F 89% 29.84 in 5.0 mi WSW 6.9 mph - N/A   Clear
2:32 AM 34.0 °F 28.8 °F 31.1 °F 89% 29.84 in 5.0 mi WSW 5.8 mph - N/A   Scattered Clouds
2:53 AM 34.0 °F 27.2 °F 31.1 °F 89% 29.84 in 5.0 mi WSW 8.1 mph - N/A   Mostly Cloudy
3:13 AM 34.0 °F 27.2 °F 30.9 °F 89% 29.83 in 5.0 mi WSW 8.1 mph - N/A   Mostly Cloudy
3:32 AM 34.0 °F 26.6 °F 30.9 °F 89% 29.83 in 5.0 mi WSW 9.2 mph - N/A   Mostly Cloudy
3:53 AM 33.8 °F 27.7 °F 30.9 °F 89% 29.83 in 4.0 mi WSW 6.9 mph - N/A   Mostly Cloudy
4:13 AM 33.8 °F 27.7 °F 31.1 °F 90% 29.82 in 4.0 mi WSW 6.9 mph - N/A   Overcast
4:32 AM 33.8 °F 25.8 °F 31.1 °F 90% 29.81 in 3.0 mi West 10.4 mph - N/A   Overcast
4:53 AM 33.8 °F 26.4 °F 31.6 °F 92% 29.81 in 3.0 mi West 9.2 mph - N/A   Overcast
5:13 AM 33.8 °F 27.7 °F 31.8 °F 92% 29.81 in 2.5 mi West 6.9 mph - N/A   Overcast
5:33 AM 33.4 °F 26.6 °F 31.8 °F 94% 29.81 in 2.0 mi West 8.1 mph 16.1 mph N/A   Overcast
5:52 AM 33.3 °F 24.6 °F 31.8 °F 94% 29.81 in 2.0 mi West 11.5 mph - N/A   Overcast
6:13 AM 33.3 °F 23.7 °F 31.8 °F 94% 29.81 in 3.0 mi West 13.8 mph 17.3 mph N/A   Overcast
6:33 AM 33.4 °F 23.5 °F 31.8 °F 94% 29.80 in 4.0 mi West 15.0 mph - N/A   Overcast
6:52 AM 33.8 °F 24.3 °F 31.6 °F 92% 29.80 in 5.0 mi West 13.8 mph - N/A   Overcast
7:13 AM 33.8 °F 26.4 °F 31.1 °F 90% 29.80 in 3.0 mi West 9.2 mph 18.4 mph N/A   Overcast
7:33 AM 33.4 °F 25.4 °F 30.9 °F 90% 29.80 in 4.0 mi West 10.4 mph - N/A   Overcast
7:53 AM 33.8 °F 25.3 °F 30.9 °F 89% 29.80 in 4.0 mi West 11.5 mph - N/A   Overcast
8:13 AM 34.2 °F 26.2 °F 31.1 °F 89% 29.80 in 5.0 mi West 10.4 mph - N/A   Overcast
8:33 AM 34.7 °F 25.9 °F 31.1 °F 87% 29.80 in 4.0 mi West 12.7 mph - N/A   Overcast
8:53 AM 34.7 °F 24.7 °F 31.1 °F 87% 29.80 in 4.0 mi WNW 16.1 mph 20.7 mph N/A   Overcast
9:13 AM 34.7 °F 25.1 °F 31.1 °F 87% 29.80 in 5.0 mi West 15.0 mph 20.7 mph N/A   Overcast
9:33 AM 34.7 °F 24.0 °F 30.7 °F 85% 29.80 in 5.0 mi WNW 18.4 mph 23.0 mph N/A   Haze
9:53 AM 34.9 °F 24.2 °F 30.2 °F 83% 29.81 in 7.0 mi WNW 18.4 mph 23.0 mph N/A   Overcast
10:13 AM 34.7 °F 24.7 °F 30.0 °F 83% 29.81 in 7.0 mi WNW 16.1 mph - N/A   Overcast
10:33 AM 35.1 °F 26.4 °F 30.2 °F 82% 29.81 in 7.0 mi WNW 12.7 mph - N/A   Overcast
10:53 AM 35.2 °F 27.1 °F 30.2 °F 82% 29.81 in 7.0 mi West 11.5 mph 17.3 mph N/A   Overcast
11:12 AM 35.6 °F 26.2 °F 30.2 °F 81% 29.82 in 7.0 mi WNW 15.0 mph 20.7 mph N/A   Overcast
11:33 AM 36.7 °F 26.3 °F 30.7 °F 79% 29.82 in 7.0 mi WNW 19.6 mph 24.2 mph N/A   Overcast
11:53 AM 36.5 °F 27.4 °F 30.0 °F 77% 29.83 in 10.0 mi West 15.0 mph 23.0 mph N/A   Overcast
12:12 PM 37.0 °F 27.0 °F 29.7 °F 75% 29.83 in 10.0 mi WNW 18.4 mph 23.0 mph N/A   Overcast
12:33 PM 38.5 °F 29.9 °F 29.3 °F 70% 29.82 in 10.0 mi WNW 15.0 mph - N/A   Mostly Cloudy
12:53 PM 39.2 °F 28.7 °F 27.9 °F 64% 29.82 in 10.0 mi WNW 23.0 mph 28.8 mph N/A   Mostly Cloudy
1:12 PM 38.5 °F 28.6 °F 26.2 °F 61% 29.83 in 10.0 mi NW 19.6 mph 27.6 mph N/A   Mostly Cloudy
1:33 PM 38.5 °F 28.3 °F 24.8 °F 58% 29.84 in 10.0 mi WNW 20.7 mph 27.6 mph N/A   Mostly Cloudy
1:52 PM 39.2 °F 28.3 °F 22.8 °F 52% 29.84 in 10.0 mi NW 25.3 mph 31.1 mph N/A   Mostly Cloudy
2:13 PM 38.5 °F 28.6 °F 21.9 °F 51% 29.85 in 10.0 mi NW 19.6 mph 26.5 mph N/A   Scattered Clouds
2:33 PM 38.5 °F 27.5 °F 21.0 °F 50% 29.86 in 10.0 mi NW 24.2 mph 29.9 mph N/A   Scattered Clouds
2:52 PM 38.5 °F 28.3 °F 20.8 °F 49% 29.86 in 10.0 mi NW 20.7 mph 27.6 mph N/A   Clear
3:13 PM 38.3 °F 27.6 °F 20.3 °F 48% 29.86 in 10.0 mi NW 23.0 mph 31.1 mph N/A   Scattered Clouds
3:33 PM 38.3 °F 27.6 °F 22.1 °F 52% 29.86 in 10.0 mi NW 23.0 mph 27.6 mph N/A   Scattered Clouds
3:52 PM 38.1 °F 27.3 °F 20.1 °F 48% 29.88 in 10.0 mi WNW 23.0 mph 28.8 mph N/A   Scattered Clouds
4:13 PM 37.6 °F 26.6 °F 19.6 °F 48% 29.88 in 10.0 mi NW 23.0 mph 27.6 mph N/A   Scattered Clouds
4:33 PM 37.4 °F 27.5 °F 17.6 °F 45% 29.89 in 10.0 mi NW 18.4 mph 25.3 mph N/A   Clear
4:52 PM 37.0 °F 25.9 °F 16.7 °F 44% 29.89 in 10.0 mi NW 23.0 mph - N/A   Clear
5:13 PM 36.7 °F 26.3 °F 17.2 °F 45% 29.90 in 10.0 mi NW 19.6 mph 24.2 mph N/A   Clear
5:32 PM 36.5 °F 25.7 °F 18.3 °F 48% 29.90 in 10.0 mi NW 20.7 mph 25.3 mph N/A   Clear
5:53 PM 36.0 °F 24.7 °F 17.4 °F 47% 29.91 in 10.0 mi NNW 21.9 mph 25.3 mph N/A   Clear
6:13 PM 35.6 °F 24.5 °F 16.7 °F 46% 29.92 in 10.0 mi NW 20.7 mph 26.5 mph N/A   Clear
6:33 PM 34.9 °F 24.9 °F 18.7 °F 52% 29.93 in 10.0 mi NW 16.1 mph - N/A   Clear
6:53 PM 34.3 °F 24.2 °F 19.6 °F 55% 29.94 in 10.0 mi WNW 16.1 mph 23.0 mph N/A   Clear
7:13 PM 33.3 °F 22.5 °F 19.8 °F 58% 29.95 in 10.0 mi WNW 17.3 mph 23.0 mph N/A   Clear
7:33 PM 32.9 °F 22.8 °F 19.6 °F 58% 29.95 in 10.0 mi NW 15.0 mph 25.3 mph N/A   Clear
7:53 PM 32.0 °F 21.2 °F 20.5 °F 63% 29.96 in 10.0 mi WNW 16.1 mph - N/A   Clear
8:13 PM 32.0 °F 21.6 °F 19.8 °F 61% 29.97 in 10.0 mi WNW 15.0 mph - N/A   Clear
8:33 PM 31.6 °F 20.7 °F 19.2 °F 60% 29.98 in 10.0 mi WNW 16.1 mph - N/A   Clear
8:53 PM 31.3 °F 21.1 °F 19.2 °F 61% 29.99 in 10.0 mi WNW 13.8 mph - N/A   Clear
9:12 PM 31.1 °F 19.7 °F 18.9 °F 61% 30.00 in 10.0 mi NW 17.3 mph 23.0 mph N/A   Clear
9:33 PM 30.6 °F 19.4 °F 18.0 °F 60% 30.01 in 10.0 mi NW 16.1 mph 25.3 mph N/A   Clear
9:53 PM 30.0 °F 18.3 °F 18.0 °F 61% 30.02 in 10.0 mi NW 17.3 mph 25.3 mph N/A   Clear
10:12 PM 29.7 °F 17.4 °F 18.1 °F 62% 30.03 in 10.0 mi WNW 18.4 mph 25.3 mph N/A   Clear
10:33 PM 29.1 °F 18.9 °F 17.8 °F 63% 30.03 in 10.0 mi NW 12.7 mph 20.7 mph N/A   Clear
10:53 PM 28.4 °F 17.5 °F 17.6 °F 64% 30.04 in 10.0 mi NW 13.8 mph - N/A   Clear
11:12 PM 28.0 °F 16.1 °F 16.9 °F 63% 30.04 in 10.0 mi NW 16.1 mph 25.3 mph N/A   Clear
11:33 PM 27.1 °F 14.9 °F 16.9 °F 65% 30.05 in 10.0 mi NW 16.1 mph 21.9 mph N/A   Clear
11:53 PM 26.8 °F 14.5 °F 16.3 °F 65% 30.06 in 10.0 mi NW 16.1 mph 21.9 mph N/A   Clear